GFSFLT1_sfc_thetae_135.txt.gz
Theta_e
348 350 352 353 353 352 352 352 352 352 351 351 351 351 349 349 347 345 346 347 351 351 351 352 352 352 352 354 353 352 351 352 355
347 348 351 351 351 351 351 351 352 351 351 351 351 350 348 347 347 347 345 345 350 349 349 349 349 349 350 352 352 351 350 350 352
346 348 348 348 351 350 349 350 350 350 349 349 348 346 347 346 346 345 346 349 348 348 347 347 346 348 348 348 348 349 349 350 350
346 347 347 348 349 348 348 348 348 349 348 348 346 344 344 343 343 341 342 347 346 347 347 346 345 345 345 346 346 347 347 347 348
347 348 348 347 348 347 346 347 346 346 345 345 343 340 341 339 340 340 339 343 342 342 341 341 342 343 344 343 342 343 343 344 345
343 346 349 348 347 346 346 345 344 343 341 340 337 338 336 336 336 334 338 339 339 339 338 337 337 337 337 337 338 338 339 340 341
338 344 348 348 346 345 344 343 339 337 336 335 335 334 334 334 333 334 340 338 338 338 337 336 336 336 336 335 335 335 335 335 336
338 339 345 344 345 341 339 334 332 332 332 332 333 333 332 333 333 335 339 337 337 336 335 334 334 334 333 333 333 333 333 333 333
337 335 339 339 339 335 331 329 330 330 331 331 331 331 332 332 332 334 337 336 335 335 334 333 332 332 332 331 331 331 331 331 331
333 329 333 334 335 331 327 327 328 328 329 330 330 330 331 331 331 331 336 336 334 334 333 333 332 331 330 330 329 329 329 329 329
331 327 330 330 332 327 326 326 326 327 328 328 329 329 330 330 330 330 332 335 334 332 332 331 331 330 329 329 328 328 328 328 328
329 326 327 327 329 325 325 325 326 326 326 326 327 328 328 328 328 329 330 330 333 333 330 330 330 329 329 328 327 327 327 326 326
327 324 325 322 322 324 324 324 324 324 324 324 324 324 324 325 325 325 326 327 327 331 332 329 329 328 327 326 326 325 325 325 325
325 323 321 318 320 323 323 323 323 322 322 321 321 321 321 321 321 322 324 325 326 327 330 331 329 327 326 325 325 324 323 323 323
324 321 316 315 319 321 322 321 323 322 321 318 316 317 317 319 320 320 319 320 322 323 324 325 325 326 324 323 324 323 322 321 321
321 319 314 315 318 320 322 320 319 317 317 315 314 313 315 316 317 318 318 318 318 320 321 322 323 321 321 320 320 321 321 320 319
319 315 312 312 316 319 318 319 318 315 318 315 313 310 312 314 314 315 314 313 314 316 317 319 320 320 318 318 316 317 317 317 317
316 314 311 313 316 317 318 319 318 314 313 315 312 307 306 310 311 311 311 312 309 310 311 312 316 316 316 316 314 315 313 313 314
317 309 310 308 313 316 317 318 318 318 313 311 310 310 310 307 303 306 306 311 308 308 311 312 313 312 314 311 310 311 309 309 310
314 309 307 307 311 314 316 317 316 318 316 314 309 308 307 308 305 301 302 303 305 306 309 311 310 312 312 311 311 311 311 307 307

GFSFLT1_sfc_thetae_138.txt.gz
Theta_e
352 353 353 354 353 353 353 353 352 351 350 351 351 350 352 350 345 345 349 350 351 352 351 351 352 353 352 354 354 353 352 353 354
352 353 352 352 352 352 352 352 352 352 351 352 350 349 352 346 345 344 344 347 349 350 350 349 350 350 350 351 352 351 351 351 353
350 351 352 351 350 351 351 350 351 351 350 350 349 350 349 343 343 346 347 349 348 348 348 347 347 348 348 348 348 348 350 350 350
349 349 350 351 350 349 350 349 350 350 349 348 347 347 348 342 340 340 342 346 346 347 345 345 345 345 345 345 347 347 348 348 349
349 350 350 350 349 349 348 349 349 348 347 345 344 345 345 340 339 338 338 342 341 342 341 340 340 341 341 341 343 344 345 346 346
345 348 350 349 347 348 347 346 346 344 343 341 340 345 339 336 335 335 338 340 340 339 338 337 337 338 338 338 338 338 340 341 342
341 347 349 348 347 346 346 345 343 344 340 338 339 338 336 334 334 335 340 339 338 338 336 336 336 336 336 335 336 336 336 336 337
339 345 346 345 345 342 342 340 336 336 337 337 337 334 332 333 333 336 339 337 336 336 335 334 334 334 334 334 334 334 333 333 333
335 339 340 340 341 338 336 334 333 333 333 333 333 331 331 331 332 334 337 336 335 335 334 333 333 332 332 332 332 332 332 332 332
335 337 340 338 338 336 331 331 331 330 331 331 329 329 330 331 331 332 336 337 334 334 333 333 332 331 331 331 331 331 330 330 330
336 335 337 338 336 331 329 326 327 328 328 327 328 329 330 330 330 330 333 335 335 333 332 332 331 331 331 330 330 329 329 329 328
335 333 334 335 335 330 328 326 327 327 327 327 328 328 328 328 329 329 329 331 333 333 331 330 330 330 329 329 328 328 328 327 327
333 331 332 334 332 329 327 325 325 326 326 325 326 326 327 327 327 328 328 327 327 331 332 329 329 328 328 327 327 326 326 326 326
333 330 333 331 330 328 327 325 324 323 324 324 324 325 324 324 324 324 326 327 327 326 329 330 329 327 327 326 326 325 325 324 324
331 328 329 329 328 327 327 324 324 323 323 321 321 323 323 323 321 322 322 325 325 324 324 325 325 325 324 324 324 324 323 322 323
329 328 327 328 327 327 327 325 322 322 322 320 319 319 320 320 320 321 320 321 321 322 323 323 323 321 321 320 321 322 322 321 320
325 325 325 325 326 326 325 324 322 322 321 316 315 311 314 317 317 318 317 317 318 319 320 321 321 321 319 317 317 318 318 318 318
324 322 319 321 325 325 325 325 323 319 320 320 316 310 308 312 316 315 316 316 315 316 317 317 318 320 319 316 314 314 314 314 315
322 322 322 320 324 325 325 326 324 322 317 318 316 317 316 309 308 314 315 315 314 314 314 315 316 317 318 314 311 312 310 310 311
316 316 318 319 322 324 325 325 325 323 320 318 315 314 314 314 311 308 310 313 313 309 313 316 314 316 317 317 315 311 312 309 308

GFSFLT1_sfc_thetae_141.txt.gz
Theta_e
352 354 354 354 354 354 354 353 351 350 350 351 351 354 354 348 346 347 348 348 350 351 350 351 352 354 352 353 354 355 353 353 355
353 354 354 353 353 353 352 352 352 353 351 351 351 353 352 344 345 344 346 346 349 350 350 349 349 351 351 351 352 352 351 352 353
353 353 352 352 352 352 351 351 351 350 349 350 349 352 348 343 343 344 345 348 348 349 347 346 347 347 347 349 349 350 350 351 351
352 352 352 351 351 351 351 350 350 350 349 348 348 350 348 338 340 338 341 346 345 345 344 344 343 344 345 346 347 348 348 349 349
350 351 351 350 350 350 349 349 349 348 347 346 346 346 345 336 337 336 337 343 341 340 339 339 341 341 341 342 344 345 345 345 345
344 347 351 349 349 349 349 348 347 345 344 340 339 344 335 334 334 335 338 339 339 339 339 338 338 338 338 339 339 340 340 341 342
341 346 349 349 347 347 347 346 346 345 338 337 339 335 333 333 333 333 337 338 338 338 337 337 336 336 337 336 336 336 336 336 337
342 343 343 346 345 343 343 342 341 338 337 337 334 331 331 333 333 335 337 337 336 336 335 335 335 335 335 335 334 334 334 334 334
337 340 341 345 342 338 336 333 333 332 332 332 331 329 330 331 331 334 337 336 335 335 335 334 334 334 333 333 333 333 332 332 332
336 337 340 340 338 336 332 330 329 329 329 330 328 328 328 329 330 331 336 336 334 334 334 334 333 333 333 332 332 332 331 331 331
336 335 338 337 335 333 329 328 327 329 328 326 327 327 328 328 329 330 332 335 335 333 333 333 333 332 332 331 331 330 330 330 329
336 335 338 337 334 329 327 326 327 327 326 325 326 327 327 327 327 329 330 330 333 333 331 331 331 331 330 330 329 329 329 328 328
335 333 335 336 330 329 326 326 326 325 325 324 325 325 326 326 326 327 327 328 327 331 332 330 329 329 329 328 328 327 327 327 327
335 332 335 333 328 327 325 325 325 324 324 323 324 324 324 324 324 325 326 327 328 327 331 332 330 328 328 327 327 326 326 325 325
334 333 333 329 326 328 326 323 324 324 323 320 320 322 322 322 322 322 323 325 327 325 325 326 324 327 326 326 326 325 324 324 324
330 330 329 326 325 327 326 324 322 322 322 320 319 319 319 319 320 320 320 321 321 322 324 324 322 319 322 322 323 323 323 322 321
327 326 327 326 327 325 325 325 322 321 321 317 316 310 313 316 317 318 317 317 319 319 319 319 320 322 319 319 318 320 319 319 319
325 327 326 326 326 325 326 326 324 319 320 318 316 310 308 312 315 315 316 316 315 316 317 316 317 318 317 316 316 317 315 315 315
323 324 322 325 326 326 325 326 325 323 318 319 317 317 315 310 308 314 314 315 314 314 315 314 316 316 319 316 316 313 311 311 311
319 321 321 323 325 325 326 326 324 324 321 320 317 315 315 314 313 308 311 314 315 315 314 314 316 315 316 318 317 313 312 309 308

GFSFLT1_sfc_thetae_144.txt.gz
Theta_e
355 354 354 355 355 355 353 352 351 351 354 354 352 353 352 348 343 342 345 343 350 351 349 352 352 352 352 354 354 353 353 353 355
354 354 353 354 354 354 352 351 351 352 352 352 351 353 350 341 340 340 341 343 349 349 349 350 350 350 351 352 352 352 351 352 354
354 353 353 353 353 352 352 351 351 351 350 352 350 350 347 341 338 338 339 346 346 347 346 346 348 349 349 349 350 350 349 351 352
352 352 352 352 352 351 351 351 350 350 349 349 349 347 344 332 334 337 337 344 342 342 342 343 343 344 346 347 347 348 348 347 348
350 351 352 351 351 351 350 349 349 348 349 348 348 346 340 330 330 332 335 340 341 340 339 340 341 343 343 344 345 345 345 345 343
344 349 350 350 350 350 349 348 347 345 345 344 342 340 331 330 330 331 338 339 339 339 338 338 338 339 339 340 340 340 340 341 341
340 346 348 349 349 349 349 347 346 341 333 334 338 330 329 328 329 330 338 338 338 338 337 337 337 337 337 336 336 336 336 336 337
338 339 341 339 344 341 341 339 339 332 334 333 331 329 328 327 328 333 335 336 336 337 336 335 335 335 335 335 335 335 335 334 334
334 337 339 338 337 335 334 333 328 331 333 329 325 327 326 327 326 332 337 336 335 336 336 335 335 334 334 334 334 333 333 333 333
329 332 337 337 336 332 328 323 323 322 322 324 326 325 326 324 327 327 332 337 335 335 335 335 335 334 334 333 333 332 332 332 332
328 327 333 335 334 327 323 322 321 322 322 320 325 325 325 325 324 325 329 335 335 334 334 334 334 334 333 332 332 331 331 330 331
325 329 334 335 326 322 321 321 321 320 321 319 321 323 323 325 324 324 324 327 334 334 332 332 333 332 332 331 330 330 329 329 329
326 330 334 336 326 323 320 320 319 319 319 318 319 320 323 323 324 323 322 321 323 330 333 331 331 331 331 330 329 329 328 328 328
331 331 334 333 325 322 321 320 319 318 317 319 318 318 318 319 322 320 321 322 321 322 332 332 331 329 329 329 328 328 327 327 326
334 330 332 328 323 320 320 319 319 318 316 319 316 315 315 316 317 318 321 321 320 319 318 317 322 328 327 327 327 326 326 325 325
332 331 329 325 323 321 319 318 317 316 316 314 312 312 312 312 314 315 316 316 317 317 318 315 315 318 325 325 325 325 324 323 323
330 329 325 324 322 322 319 318 316 315 314 310 309 305 307 309 312 311 314 312 314 314 314 314 313 312 312 315 321 322 321 321 320
329 327 326 324 323 322 320 319 317 313 312 312 308 304 302 305 307 307 308 308 308 309 309 311 312 311 308 313 316 319 317 316 316
327 326 326 325 323 322 321 321 319 316 311 312 313 309 308 303 301 305 307 307 307 307 307 308 309 309 310 314 314 317 314 312 312
323 322 323 324 323 323 322 321 319 317 313 312 308 307 307 306 304 300 303 306 307 307 306 306 306 307 309 309 315 316 313 311 310

GFSFLT1_sfc_thetae_147.txt.gz
Theta_e
355 355 355 355 355 354 352 352 352 354 353 353 352 350 348 345 340 340 345 344 349 351 351 351 352 352 352 354 354 354 353 352 353
354 354 355 355 354 352 351 353 352 353 352 351 349 348 345 338 337 339 341 343 347 348 350 349 350 350 350 352 352 352 351 352 352
353 354 353 354 353 353 353 352 350 349 350 350 348 346 344 337 335 335 336 343 345 347 347 348 348 349 349 349 348 349 349 350 351
352 353 353 353 353 352 351 350 348 350 349 349 344 342 340 329 332 334 335 344 343 345 345 345 345 346 347 347 346 347 347 348 347
351 351 352 352 352 351 350 349 349 348 348 345 343 341 338 327 330 330 331 338 341 342 342 343 344 344 344 344 345 344 343 344 344
344 348 351 351 351 350 349 349 347 346 346 343 340 336 327 327 330 330 339 339 339 339 339 339 339 340 339 340 340 340 340 340 340
341 345 349 349 350 350 348 348 345 337 332 333 334 327 325 328 328 331 340 338 338 338 337 337 337 337 337 337 337 336 336 337 337
333 336 338 340 345 343 342 339 335 329 332 328 327 326 325 327 328 331 336 337 337 337 336 335 335 335 335 335 335 335 334 334 334
329 332 331 335 336 335 333 334 336 331 329 327 325 323 323 325 326 332 335 337 336 336 336 336 335 335 335 335 335 334 334 334 333
328 330 329 332 334 333 330 328 321 326 327 326 325 323 321 321 324 326 332 336 336 335 336 336 335 335 334 334 333 333 333 333 333
326 328 330 330 336 329 325 321 320 318 325 325 324 322 322 322 322 325 330 336 336 335 335 335 335 334 334 333 332 332 331 331 331
326 327 327 330 334 325 320 319 318 319 324 322 322 323 322 321 320 322 322 327 334 335 333 333 333 333 333 332 331 331 330 330 329
324 326 327 334 331 325 321 319 318 319 320 321 322 322 323 321 320 321 320 321 323 331 333 332 332 332 331 331 330 329 329 329 328
326 327 330 334 330 324 322 317 318 317 317 318 319 321 321 321 322 318 319 321 321 322 332 332 331 330 330 330 329 328 328 327 327
326 329 332 332 328 322 320 318 317 316 316 318 316 318 317 317 319 317 321 318 318 317 317 319 325 329 328 328 328 327 327 326 325
330 329 331 329 324 321 320 317 316 314 315 312 309 309 312 314 316 318 316 317 316 315 314 314 315 320 328 327 326 326 326 324 323
331 329 329 326 321 319 319 318 315 312 313 310 307 304 306 308 312 313 315 313 315 315 315 312 312 312 312 317 325 324 322 321 320
331 329 327 324 321 319 318 318 316 312 310 313 307 302 301 304 306 308 310 310 309 307 311 311 311 309 309 315 317 321 320 318 317
331 329 327 324 322 319 319 319 316 314 311 309 311 307 307 301 301 304 304 305 306 305 306 306 307 306 306 311 314 320 319 316 314
326 327 325 324 323 321 320 318 317 315 313 309 307 305 305 304 302 300 301 305 304 303 303 303 303 305 307 307 312 318 315 313 311

GFSFLT1_sfc_thetae_150.txt.gz
Theta_e
354 355 355 355 354 353 352 353 354 354 352 350 350 349 346 343 338 340 343 343 350 351 350 350 351 352 351 351 353 352 350 349 350
354 354 354 354 353 351 352 353 353 351 350 349 348 346 343 334 335 336 340 343 348 350 350 349 349 349 350 351 352 351 350 350 351
354 353 353 353 352 352 352 351 350 349 348 347 345 343 340 334 332 333 339 346 347 348 349 348 348 348 348 349 349 349 349 350 350
353 353 352 352 351 351 350 350 349 348 346 344 342 340 338 328 329 336 338 345 346 347 346 345 345 345 346 346 347 347 348 348 347
352 352 352 351 351 350 348 348 349 346 344 341 339 339 336 326 328 332 335 342 343 344 343 343 344 343 344 344 344 345 345 345 345
346 348 351 351 350 349 347 348 348 345 343 339 338 333 325 326 329 330 338 339 340 341 340 340 340 341 341 340 340 341 341 341 342
340 343 348 350 349 349 347 346 346 337 331 331 332 325 323 325 328 331 339 338 338 338 337 337 337 337 337 337 337 337 336 337 337
333 332 332 335 345 339 339 336 331 327 326 324 325 323 322 325 327 334 339 337 337 337 336 336 336 336 335 335 335 335 335 335 334
329 330 328 332 333 333 333 331 332 326 325 324 322 320 321 321 326 330 336 337 336 336 336 336 336 335 335 335 335 335 334 334 334
327 329 329 327 332 330 330 330 327 325 324 323 322 319 319 320 325 327 336 337 336 336 336 336 335 335 335 334 334 333 333 333 333
326 328 329 329 332 333 328 327 323 324 323 322 321 320 320 319 323 327 329 334 337 335 335 335 335 334 334 333 333 332 332 331 331
326 328 330 330 334 329 327 320 320 323 323 320 320 321 319 320 320 322 325 330 335 336 334 334 334 333 333 332 331 331 330 330 330
325 326 328 331 330 328 324 319 322 322 320 319 320 321 320 318 319 320 320 321 323 331 334 332 332 332 332 331 330 330 329 329 328
324 325 328 328 326 326 323 319 322 320 320 320 319 319 318 318 320 317 319 321 321 322 332 333 331 331 331 330 329 329 328 328 327
325 325 331 327 325 324 323 318 318 319 319 320 318 317 317 317 316 316 319 319 319 319 320 321 326 330 329 329 328 328 327 326 325
326 327 331 327 324 323 322 319 316 314 319 312 309 309 312 314 314 316 315 315 315 314 315 316 317 321 329 327 327 327 326 325 324
325 326 330 326 323 322 322 318 314 314 316 313 308 306 309 309 312 314 315 314 313 313 313 313 313 312 313 320 327 325 323 322 320
328 326 329 326 323 321 322 319 316 313 309 314 307 302 305 305 306 308 311 311 311 312 311 310 311 309 310 315 318 323 321 318 317
330 329 329 327 323 321 321 319 317 315 311 309 310 307 307 303 301 304 304 304 306 304 307 307 308 305 307 310 314 321 321 316 314
330 330 327 326 322 321 320 318 317 317 313 310 307 305 305 305 303 299 300 303 302 301 303 304 305 305 305 305 309 319 315 313 311